Погода в Пивкино

Россия / Курганская область     55°15′41″N   62°22′51″E
темп.,
°C
ветер,
м/с
пор.,
м/с
влажн.,
%
обл.,
%
осадки,
мм/ч
давл.,
гПа
погр.,
м
8 марта, пн
пн823:00−11сз61194100 1.1 1007337
02:00−17зсз489054 0.0 1009129
05:00−20з349428 0.0 101048
08:00−20юз34920 0.0 101142
11:00−13ююз598550 0.0 1010301
14:00−11ю71293100 0.1 1009553
17:00−7ююз81483100 0.3 1007889
20:00−6ююз71586100 0.1 1006732
9 марта, вт
вт923:00−5юз8178174 0.1 1006651
02:00−7юз7148541 0.0 1007338
05:00−7ююз6138970 0.0 1007403
08:00−5ююз91687100 0.1 1005693
11:00−4юз9168399 0.1 1004952
14:00−3зюз8146962 0.1 10061656
17:00−4зсз488234 0.1 1009324
20:00−9зюз348266 0.0 101132
10 марта, ср
ср1023:00−11зюз228282 0.0 101321
02:00−11ююв2282100 0.0 101121
05:00−11вюв3486100 0.0 100965
08:00−10юв4890100 0.0 1006265
11:00−7вюв5895100 0.3 1004345
14:00−5вюв5895100 0.9 1001501
17:00−5вюв6995100 2.2 998562
20:00−6вюв61096100 1.6 998460
11 марта, чт
чт1123:00−10юз4888100 2.6 998216
02:00−18ююз3390100 0.0 99936
05:00−21ююв129666 0.1 100120
08:00−18с379869 0.2 1003222
11:00−16с7109484 0.7 1005523
14:00−15ссз6991100 0.4 1007596
17:00−14ссз61088100 0.5 1008580
20:00−17зсз349262 0.0 101187
12 марта, пт
пт1223:00−17ссз239781 0.3 101467
02:00−18з3598100 0.1 1015110
05:00−20зсз349899 0.2 101659
08:00−22с2299100 0.0 101827
11:00−18юз1292100 0.1 1020228
14:00−13юз3586100 0.1 1020494
17:00−10зюз369293 0.2 1021482
20:00−14з478788 0.1 102396